Temp
57 60 60 60 60 58 58 57 56 55 52 52 52 51 51 50 49 47 45 46 45 43 43 43 43 43 41 41 40 40 39 38 38 42 40 42 41 43 46 45 47 46 46
62 59 59 59 55 58 56 53 52 51 52 52 51 50 50 49 47 46 45 45 43 43 43 43 43 49 42 41 40 39 39 39 37 38 40 39 40 41 41 41 48 52 47
59 54 54 54 53 50 50 50 51 50 49 50 50 49 49 48 47 46 46 45 44 43 42 41 42 41 39 39 40 40 39 44 38 36 38 38 38 38 39 41 42 41 49
54 53 51 48 48 48 49 49 50 49 48 48 48 48 48 48 48 47 46 43 42 43 43 43 42 41 40 39 41 41 41 38 37 36 36 36 37 40 38 36 39 41 43
50 48 48 48 49 49 49 48 48 48 47 47 47 47 47 47 50 45 45 43 41 41 42 43 44 46 52 51 47 43 43 40 37 38 39 40 41 41 40 40 41 43 44
48 48 49 49 49 48 47 47 46 46 45 46 45 45 44 49 55 56 52 42 43 47 46 40 41 47 44 51 51 52 50 44 41 40 39 38 39 40 42 40 40 40 38
48 49 49 49 48 47 47 46 44 42 41 41 41 42 41 41 54 55 54 48 45 40 38 38 40 47 46 43 47 50 49 51 50 44 41 39 40 41 41 39 42 41 40
47 48 48 47 46 45 44 43 41 41 40 40 40 41 40 43 53 53 53 43 39 39 42 46 44 41 40 43 42 42 43 44 42 44 42 42 41 42 41 41 40 41 43
46 46 46 46 44 44 42 40 40 39 39 39 40 40 39 39 50 52 49 40 41 43 45 43 41 39 45 49 44 42 42 43 47 50 51 51 51 52 50 45 41 39 37
45 46 46 45 44 43 41 40 40 39 41 41 41 40 43 38 46 49 48 40 37 41 42 40 45 45 49 50 45 43 40 41 42 43 43 43 46 45 48 45 43 38 38
47 47 46 44 43 42 40 39 38 38 38 37 38 36 36 39 38 48 49 44 42 42 40 40 41 45 48 49 48 43 42 44 44 41 41 41 42 42 42 43 44 41 37
46 46 44 42 45 44 39 38 37 36 34 34 33 33 35 35 43 45 47 47 47 41 39 40 39 46 48 48 47 48 48 48 40 36 35 35 36 35 37 39 41 41 42
43 41 41 41 41 40 38 36 35 35 33 33 33 32 34 38 37 45 46 46 46 42 41 43 46 46 45 44 45 47 46 39 37 32 32 32 33 34 37 35 38 39 39
39 39 39 38 39 38 38 37 35 33 32 33 34 35 36 35 38 40 40 39 41 41 42 39 42 42 44 43 41 40 39 37 35 34 35 37 34 33 34 37 37 38 37
38 38 37 37 36 35 36 35 36 33 39 37 36 37 36 34 37 42 42 40 40 42 43 38 35 35 35 36 36 37 37 37 34 33 32 34 33 34 37 39 38 37 35
37 36 36 35 34 34 33 33 42 43 44 43 43 42 40 42 43 43 44 44 44 45 39 32 33 33 32 33 33 34 35 35 33 33 32 32 33 34 36 37 37 35 34
35 36 34 35 33 31 31 30 28 34 41 42 42 42 43 43 43 43 43 44 43 42 33 33 32 32 33 33 33 33 33 34 34 33 32 32 33 34 36 36 36 35 35
36 42 32 31 31 31 30 30 29 30 32 34 38 40 41 42 42 42 42 41 33 35 33 32 32 33 33 33 33 33 34 34 32 32 32 32 33 34 35 35 35 34 34
36 34 33 31 31 34 31 30 34 34 32 32 32 36 37 40 40 41 40 32 31 31 33 33 34 34 33 33 33 34 34 33 33 33 34 33 34 34 34 35 35 37 36
34 41 39 32 32 31 31 33 32 31 31 31 31 32 34 34 32 32 34 33 33 33 33 33 34 34 33 33 33 33 33 34 33 34 34 34 34 35 34 34 34 34 34
31 32 40 31 31 30 30 28 32 31 30 31 30 32 39 35 31 31 32 33 33 32 33 33 33 33 34 34 34 33 33 33 33 34 33 34 35 34 35 36 35 35 35
30 31 31 31 31 30 29 32 31 31 31 31 30 32 37 33 32 32 33 33 33 33 34 34 33 34 34 34 34 33 33 33 33 33 33 34 35 35 35 35 35 35 35
30 31 31 30 30 32 28 28 27 29 31 30 31 31 32 32 32 32 33 33 33 33 34 34 33 33 35 35 35 35 33 33 34 34 33 34 34 35 35 34 35 34 35
31 30 29 29 30 28 26 26 28 30 31 32 31 32 32 33 32 32 33 33 33 34 34 34 34 33 34 34 35 35 35 35 35 35 35 34 34 35 35 35 35 35 35
31 30 29 27 27 26 27 29 30 31 31 31 32 32 32 33 33 33 33 33 34 34 34 34 34 34 33 34 34 35 35 35 35 36 35 35 35 35 35 35 35 35 35
31 30 29 28 26 29 32 32 31 32 31 32 32 32 32 32 32 33 33 34 33 34 34 34 34 34 34 34 35 35 35 36 36 37 37 36 35 35 36 36 35 35 35
MSLP
1015.26 1015.69 1016.02 1016.48 1017.00 1017.47 1018.15 1018.69 1019.02 1019.55 1020.01 1020.31 1020.73 1021.08 1021.35 1021.57 1021.75 1022.03 1022.24 1022.39 1022.58 1022.73 1022.78 1022.90 1022.98 1022.94 1022.92 1022.88 1022.85 1022.85 1022.94 1022.94 1022.73 1021.94 1021.70 1021.32 1021.19 1020.99 1020.74 1020.59 1020.45 1020.22 1019.99
1015.67 1016.15 1016.63 1017.10 1017.67 1018.29 1018.61 1019.09 1019.52 1019.83 1020.18 1020.58 1020.93 1021.22 1021.46 1021.60 1021.74 1021.96 1022.20 1022.34 1022.51 1022.66 1022.71 1022.76 1022.79 1022.67 1022.66 1022.51 1022.40 1022.36 1022.23 1021.98 1022.14 1021.68 1021.34 1021.05 1020.81 1020.48 1020.32 1020.24 1019.83 1019.48 1019.51
1016.47 1017.11 1017.76 1018.15 1018.59 1019.06 1019.38 1019.70 1020.01 1020.36 1020.64 1020.78 1021.04 1021.20 1021.32 1021.50 1021.68 1021.78 1021.90 1022.04 1022.16 1022.31 1022.44 1022.51 1022.51 1022.48 1022.48 1022.24 1021.99 1021.76 1021.46 1021.19 1021.22 1021.20 1020.91 1020.49 1020.31 1020.12 1020.02 1019.78 1019.48 1019.34 1019.04
1017.35 1017.95 1018.56 1019.05 1019.37 1019.62 1019.85 1020.14 1020.41 1020.70 1020.91 1021.07 1021.21 1021.32 1021.39 1021.42 1021.47 1021.54 1021.65 1021.78 1021.89 1021.92 1021.97 1022.03 1022.01 1022.00 1021.91 1021.67 1021.36 1020.97 1020.68 1020.83 1020.92 1020.71 1020.48 1020.30 1020.09 1019.61 1019.55 1019.54 1019.12 1019.00 1018.43
1018.31 1018.81 1019.33 1019.48 1019.66 1019.92 1020.25 1020.55 1020.79 1020.96 1021.12 1021.19 1021.22 1021.19 1021.17 1021.24 1021.29 1021.34 1021.37 1021.44 1021.54 1021.54 1021.46 1021.50 1021.54 1021.45 1021.05 1020.66 1020.37 1020.14 1020.03 1019.96 1020.00 1019.82 1019.68 1019.55 1019.17 1019.08 1019.07 1018.81 1018.57 1018.28 1017.76
1019.03 1019.45 1019.65 1019.88 1020.15 1020.45 1020.66 1020.83 1020.95 1021.05 1021.07 1021.09 1021.15 1021.27 1021.28 1021.16 1021.03 1020.92 1020.90 1021.01 1020.94 1020.99 1020.99 1021.13 1021.03 1020.79 1020.56 1020.27 1019.81 1019.32 1018.98 1018.88 1018.95 1018.95 1018.63 1018.72 1018.50 1018.30 1018.25 1018.20 1018.03 1017.82 1017.36
1019.50 1019.79 1020.01 1020.22 1020.49 1020.65 1020.78 1020.96 1021.14 1021.26 1021.31 1021.42 1021.44 1021.43 1021.32 1021.14 1020.87 1020.63 1020.50 1020.42 1020.54 1020.73 1020.88 1020.79 1020.48 1020.10 1019.86 1019.70 1019.33 1018.91 1018.53 1018.24 1017.86 1017.72 1017.76 1017.82 1017.59 1017.33 1017.34 1017.22 1016.94 1016.83 1016.52
1019.92 1020.11 1020.23 1020.44 1020.76 1020.94 1021.07 1021.26 1021.32 1021.39 1021.48 1021.52 1021.42 1021.35 1021.23 1021.02 1020.68 1020.41 1020.18 1020.10 1020.26 1020.33 1020.25 1020.06 1019.88 1019.50 1019.28 1018.94 1018.50 1018.15 1017.89 1017.68 1017.43 1017.12 1016.90 1016.67 1016.45 1016.19 1016.22 1015.97 1015.79 1015.73 1015.52
1020.40 1020.55 1020.72 1020.81 1021.09 1021.18 1021.44 1021.56 1021.52 1021.54 1021.50 1021.44 1021.28 1021.16 1021.02 1020.73 1020.50 1020.18 1019.96 1020.03 1019.97 1019.89 1019.73 1019.55 1019.29 1018.96 1018.52 1017.91 1017.35 1017.22 1016.99 1016.66 1016.41 1015.97 1015.53 1015.27 1015.01 1014.78 1014.61 1014.79 1014.89 1014.90 1014.87
1020.78 1020.89 1020.89 1020.97 1021.12 1021.40 1021.51 1021.52 1021.40 1021.43 1021.36 1021.27 1021.16 1021.01 1020.89 1020.78 1020.50 1020.16 1019.88 1019.72 1019.72 1019.58 1019.28 1018.90 1018.66 1018.21 1017.57 1016.91 1016.51 1016.32 1016.15 1015.91 1015.67 1015.35 1015.18 1015.13 1014.87 1014.77 1014.41 1014.33 1014.31 1014.32 1014.27
1020.90 1020.94 1021.01 1021.12 1021.24 1021.39 1021.55 1021.58 1021.47 1021.42 1021.39 1021.33 1021.31 1021.26 1021.13 1020.92 1020.55 1019.99 1019.57 1019.31 1019.23 1018.93 1018.72 1018.37 1018.14 1017.76 1016.94 1016.24 1015.85 1015.65 1015.41 1015.09 1014.80 1014.80 1014.88 1014.78 1014.53 1014.34 1014.10 1013.80 1013.67 1013.75 1013.80
1021.03 1021.12 1021.26 1021.32 1021.34 1021.42 1021.50 1021.56 1021.48 1021.44 1021.56 1021.50 1021.46 1021.35 1020.99 1020.63 1020.28 1019.76 1019.32 1018.98 1018.53 1018.41 1018.20 1017.85 1017.33 1016.75 1015.92 1015.54 1015.15 1015.02 1014.70 1014.30 1014.63 1014.61 1014.49 1014.35 1014.18 1014.02 1013.69 1013.46 1013.29 1013.16 1013.03
1021.44 1021.62 1021.56 1021.54 1021.57 1021.60 1021.66 1021.73 1021.70 1021.61 1021.51 1021.46 1021.32 1021.05 1020.70 1020.20 1019.91 1019.47 1019.01 1018.54 1018.16 1017.85 1017.55 1017.04 1016.42 1015.96 1015.68 1015.30 1015.02 1014.49 1014.14 1014.33 1014.35 1014.22 1014.09 1013.96 1013.78 1013.39 1013.13 1013.06 1012.82 1012.57 1012.39
1021.96 1022.06 1022.04 1022.05 1021.95 1021.75 1021.66 1021.68 1021.78 1021.66 1021.54 1021.39 1021.16 1020.80 1020.28 1019.97 1019.55 1019.14 1018.70 1018.33 1017.94 1017.45 1016.97 1016.46 1015.98 1015.65 1015.20 1014.91 1014.59 1014.40 1014.24 1014.05 1013.91 1013.79 1013.61 1013.32 1013.16 1013.01 1012.74 1012.44 1012.34 1012.11 1011.94
1022.21 1022.32 1022.37 1022.29 1022.25 1022.04 1021.82 1021.73 1021.65 1021.62 1021.32 1021.08 1020.79 1020.34 1019.94 1019.54 1019.19 1018.59 1018.01 1017.53 1017.20 1016.72 1016.00 1015.99 1015.89 1015.56 1015.12 1014.76 1014.48 1014.21 1013.94 1013.66 1013.50 1013.34 1013.14 1012.89 1012.68 1012.44 1012.05 1011.81 1011.69 1011.61 1011.49
1022.52 1022.59 1022.55 1022.58 1022.57 1022.30 1022.04 1021.82 1021.65 1021.46 1021.10 1020.79 1020.44 1019.99 1019.60 1019.16 1018.52 1017.99 1017.43 1016.89 1016.44 1015.95 1015.71 1015.85 1015.62 1015.33 1014.92 1014.54 1014.15 1013.80 1013.54 1013.28 1013.06 1012.86 1012.62 1012.37 1012.11 1011.82 1011.53 1011.28 1011.18 1011.14 1011.02
1022.67 1022.62 1022.73 1022.62 1022.54 1022.41 1022.16 1022.05 1022.00 1021.39 1021.03 1020.67 1020.20 1019.70 1019.17 1018.52 1017.98 1017.53 1016.98 1016.34 1015.89 1015.58 1015.63 1015.43 1015.19 1014.81 1014.40 1014.01 1013.61 1013.29 1012.92 1012.68 1012.50 1012.29 1012.05 1011.76 1011.50 1011.27 1010.89 1010.72 1010.62 1010.51 1010.32
1022.69 1022.62 1022.93 1022.73 1022.53 1022.28 1022.15 1022.06 1021.81 1021.41 1020.86 1020.44 1020.11 1019.60 1018.95 1018.32 1017.73 1017.17 1016.54 1015.97 1015.83 1015.48 1015.25 1014.91 1014.55 1014.24 1013.85 1013.46 1013.08 1012.67 1012.30 1012.00 1011.88 1011.68 1011.40 1011.12 1010.87 1010.66 1010.38 1010.14 1010.02 1009.87 1009.68
1022.83 1022.78 1022.69 1022.58 1022.44 1022.10 1022.07 1021.94 1021.73 1021.44 1021.07 1020.58 1019.91 1019.32 1018.80 1018.18 1017.52 1016.92 1016.47 1016.18 1015.63 1015.15 1014.70 1014.27 1013.89 1013.56 1013.20 1012.79 1012.39 1011.98 1011.64 1011.34 1011.02 1010.87 1010.64 1010.43 1010.18 1009.98 1009.70 1009.53 1009.39 1009.13 1008.92
1022.94 1022.69 1022.54 1022.69 1022.49 1022.31 1022.22 1022.04 1021.88 1021.62 1021.17 1020.52 1019.83 1019.17 1018.41 1017.86 1017.25 1016.69 1016.22 1015.75 1015.23 1014.66 1014.12 1013.61 1013.07 1012.67 1012.30 1011.97 1011.60 1011.25 1010.91 1010.59 1010.35 1010.21 1010.00 1009.72 1009.47 1009.31 1009.09 1008.92 1008.75 1008.55 1008.20
1023.08 1023.00 1022.66 1022.69 1022.66 1022.65 1022.46 1022.17 1021.92 1021.58 1020.99 1020.37 1019.71 1019.08 1018.07 1017.38 1017.00 1016.42 1015.80 1015.18 1014.59 1013.97 1013.37 1012.82 1012.29 1011.80 1011.33 1010.94 1010.60 1010.33 1010.08 1009.83 1009.68 1009.45 1009.27 1009.00 1008.75 1008.60 1008.44 1008.23 1008.02 1007.78 1007.41
1023.15 1023.14 1022.97 1022.93 1022.89 1022.84 1022.50 1022.17 1021.80 1021.30 1020.73 1020.05 1019.30 1018.63 1017.83 1017.28 1016.69 1015.99 1015.25 1014.52 1013.90 1013.30 1012.64 1012.00 1011.35 1010.80 1010.31 1009.87 1009.53 1009.28 1009.05 1008.86 1008.77 1008.70 1008.49 1008.30 1008.10 1007.94 1007.79 1007.60 1007.37 1007.03 1006.65
1023.23 1023.25 1023.20 1023.18 1023.11 1022.84 1022.58 1022.30 1021.76 1021.17 1020.46 1019.68 1018.97 1018.25 1017.53 1016.85 1016.15 1015.40 1014.64 1013.89 1013.17 1012.40 1011.65 1010.93 1010.16 1009.45 1008.99 1008.61 1008.32 1008.12 1007.98 1007.88 1007.89 1007.93 1007.83 1007.66 1007.47 1007.30 1007.19 1006.95 1006.66 1006.30 1005.83
1023.32 1023.28 1023.40 1023.37 1023.20 1022.94 1022.58 1022.10 1021.53 1020.85 1020.19 1019.45 1018.70 1017.94 1017.16 1016.34 1015.58 1014.79 1014.02 1013.21 1012.38 1011.52 1010.65 1009.78 1008.97 1008.24 1007.73 1007.42 1007.18 1007.06 1007.03 1007.03 1007.04 1007.07 1007.12 1007.04 1006.83 1006.68 1006.48 1006.21 1005.91 1005.49 1004.89
1023.31 1023.39 1023.51 1023.47 1023.27 1022.88 1022.32 1021.80 1021.19 1020.58 1019.95 1019.23 1018.40 1017.59 1016.77 1015.91 1015.09 1014.24 1013.40 1012.56 1011.65 1010.70 1009.71 1008.80 1007.94 1007.27 1006.80 1006.51 1006.38 1006.31 1006.31 1006.35 1006.44 1006.42 1006.48 1006.46 1006.29 1006.07 1005.82 1005.50 1005.05 1004.41 1003.91
1023.45 1023.47 1023.47 1023.27 1023.05 1022.67 1022.17 1021.62 1021.05 1020.41 1019.76 1018.93 1018.16 1017.32 1016.44 1015.52 1014.66 1013.78 1012.86 1011.95 1011.00 1010.08 1009.09 1008.14 1007.31 1006.62 1006.29 1006.05 1005.90 1005.87 1005.87 1005.88 1005.89 1005.90 1005.88 1005.79 1005.57 1005.31 1004.98 1004.49 1003.98 1003.44 1002.70
Wind_Speed
7 7 8 9 9 9 9 7 7 6 7 6 5 5 4 3 3 3 2 2 2 3 3 3 5 4 4 4 3 3 4 3 8 6 4 5 4 6 6 5 6 5 6
9 8 9 10 8 8 8 7 6 7 5 6 5 5 3 2 3 3 1 2 2 4 4 4 5 4 5 5 4 6 5 5 5 10 4 4 6 6 6 5 5 6 5
10 9 8 8 8 7 7 7 6 5 3 2 3 3 2 1 1 0 1 3 4 4 4 4 5 5 5 4 5 5 5 6 4 4 6 2 3 2 3 4 4 4 6
9 9 9 8 7 7 6 6 5 4 4 3 3 2 2 2 2 3 4 4 3 3 4 4 5 5 6 7 8 8 6 3 3 4 4 4 4 5 3 3 7 5 9
9 8 7 7 7 7 6 5 5 5 3 2 1 2 3 3 3 4 4 5 5 5 5 5 5 10 22 17 9 7 7 6 4 6 8 10 9 8 8 4 7 7 8
8 7 6 6 6 5 4 3 3 2 2 2 4 3 2 3 6 11 9 4 6 7 5 5 6 14 13 21 22 23 19 9 10 8 7 8 9 8 8 5 7 7 7
7 6 6 5 5 4 4 5 5 4 4 4 4 3 4 4 9 13 16 5 2 3 5 5 6 8 15 9 17 23 21 23 22 11 8 8 9 8 8 10 11 10 11
5 5 5 5 5 5 5 4 3 2 3 2 3 4 3 4 13 15 16 5 3 5 6 8 10 9 9 13 11 10 11 10 11 9 9 10 9 10 9 11 11 10 9
6 6 5 5 5 4 5 4 2 2 3 3 2 4 5 6 13 14 10 3 5 5 7 7 8 9 17 23 13 10 10 10 12 20 20 20 20 20 15 6 6 7 6
5 4 4 4 3 3 1 1 2 1 3 3 5 5 8 6 10 11 10 3 4 5 8 7 16 16 22 22 14 10 10 11 8 10 10 10 11 10 18 9 4 6 4
4 4 3 4 3 2 2 3 3 3 4 5 5 5 5 7 8 16 16 7 7 8 8 6 6 18 22 23 22 9 9 10 10 5 4 6 5 6 5 5 6 7 7
3 3 3 3 3 3 3 4 3 3 4 4 4 4 4 5 14 13 18 19 16 6 7 7 8 19 23 21 16 20 22 18 2 3 4 5 5 5 5 4 5 4 4
5 5 3 4 5 4 3 4 3 3 3 3 2 3 5 5 5 14 18 18 17 11 8 14 23 22 19 14 17 21 16 4 4 4 4 5 4 5 5 3 6 7 8
6 6 5 5 5 5 3 3 2 3 3 3 4 6 6 6 7 6 6 7 14 11 14 11 14 13 15 13 10 8 5 4 5 5 5 6 5 3 4 4 5 5 5
5 5 5 4 5 4 3 2 3 1 5 7 5 6 6 6 7 15 15 9 8 11 16 4 4 4 6 6 6 6 5 5 4 4 4 5 4 5 6 5 4 5 6
4 3 4 3 4 4 3 4 7 10 15 14 15 11 7 15 20 21 21 20 21 21 6 3 6 6 6 6 6 6 5 8 5 4 4 4 6 5 6 5 5 5 6
4 4 3 4 3 4 3 3 4 6 12 13 17 18 19 18 21 19 21 21 18 14 3 5 7 7 7 7 6 6 7 5 5 5 5 6 6 6 8 5 6 5 7
5 7 2 3 3 4 2 3 3 5 8 7 11 16 17 19 19 20 20 17 8 8 5 7 7 8 7 7 7 7 6 6 5 6 6 6 6 6 6 6 6 7 7
3 3 2 3 3 4 2 3 4 6 7 8 8 10 13 18 20 18 18 5 7 8 7 8 8 8 8 8 7 7 7 8 6 6 6 6 6 6 6 6 6 12 13
4 10 7 3 4 4 3 4 5 6 7 7 8 8 9 10 6 8 8 8 8 8 8 9 8 8 8 8 8 8 7 8 5 6 8 7 6 6 7 7 7 8 8
3 4 9 4 4 3 4 4 5 6 7 7 8 9 22 11 9 9 8 8 9 9 9 9 9 9 8 8 8 8 8 7 7 7 7 7 6 6 6 7 7 8 9
3 4 4 4 3 4 4 5 5 6 7 8 8 9 20 8 8 9 9 10 9 9 9 10 9 9 9 8 9 8 8 8 7 7 7 6 6 6 6 7 8 8 9
4 4 4 3 3 7 5 5 5 6 8 8 8 9 9 9 9 10 11 11 10 10 10 10 11 11 9 9 8 9 8 7 7 6 7 6 6 6 6 7 8 9 11
4 4 4 3 4 4 4 5 7 11 11 9 9 10 10 10 10 12 11 11 11 11 11 11 11 13 11 10 7 6 7 7 6 7 9 7 7 8 7 8 9 11 12
3 4 3 3 4 4 6 6 7 8 8 9 10 10 11 11 11 12 12 11 11 11 13 12 10 11 11 12 10 9 10 13 10 9 6 8 10 11 9 8 11 12 14
4 4 2 3 3 5 6 7 8 9 9 10 10 11 12 11 12 11 11 12 12 12 14 11 12 13 9 7 6 7 8 9 9 12 7 7 8 8 8 11 15 12 14
Wind_Direction
98 104 100 93 89 92 97 102 105 107 106 102 112 115 104 89 77 80 46 319 345 318 316 294 288 281 274 272 261 248 244 218 265 276 234 247 251 255 270 267 267 283 282
98 89 87 91 90 93 94 96 100 107 110 123 119 115 116 108 91 89 25 331 318 310 297 302 288 289 284 270 253 248 233 236 226 267 265 245 236 245 237 248 267 277 254
89 86 78 78 82 85 92 94 95 110 113 108 137 167 197 211 149 297 277 275 272 276 293 306 296 301 294 283 273 265 256 264 245 246 270 247 254 245 272 268 260 265 268
84 84 83 82 90 87 82 75 76 79 79 65 76 110 145 193 240 258 262 264 239 245 273 274 280 282 276 277 272 266 259 248 270 250 248 252 235 257 226 229 284 262 272
85 83 87 85 79 71 58 53 53 54 51 47 20 315 310 305 265 240 252 248 251 263 279 289 282 284 297 292 292 287 265 261 248 255 271 274 272 273 262 257 267 272 275
93 96 94 88 85 80 70 59 56 28 349 339 330 324 316 288 296 304 304 241 248 254 301 284 271 297 294 293 294 297 293 274 265 263 265 271 271 264 263 255 266 268 277
109 111 106 101 93 79 64 52 35 24 26 10 357 346 331 320 318 310 306 298 319 282 263 271 282 286 295 283 285 288 291 292 288 279 278 272 266 248 237 246 241 244 252
106 109 106 97 82 69 62 46 17 21 20 354 326 329 329 302 318 313 307 327 292 263 261 300 293 283 275 284 270 265 267 268 269 271 261 258 244 256 233 238 244 252 246
78 81 75 84 81 63 47 30 358 12 334 310 299 310 300 295 307 313 326 335 281 292 301 283 276 272 278 288 284 293 279 272 272 279 280 281 291 295 294 269 244 232 239
73 75 75 72 63 54 100 292 263 263 279 305 305 308 316 347 350 334 316 288 305 295 287 277 283 289 293 298 297 286 280 284 271 269 275 284 285 282 287 277 287 284 268
74 55 47 63 84 79 18 339 313 313 332 340 346 355 20 344 326 323 319 319 301 293 291 284 275 290 292 295 303 305 287 286 295 329 308 273 271 275 274 276 276 245 253
42 356 15 81 38 67 24 335 338 7 23 356 17 347 320 317 324 317 318 310 305 309 291 284 271 285 299 311 318 313 309 315 305 268 261 260 259 259 259 262 295 301 285
26 29 23 37 43 26 32 351 1 10 5 336 323 306 302 299 280 300 313 308 308 307 294 292 303 308 308 309 299 301 318 321 288 263 262 257 242 241 258 256 254 252 242
47 36 41 28 21 0 4 26 11 2 21 346 319 311 305 301 300 295 292 296 290 295 289 287 287 301 300 299 308 306 288 268 264 265 271 277 254 258 254 240 255 259 265
46 36 24 17 359 357 7 360 357 264 345 334 310 301 305 306 293 298 310 303 294 293 310 342 302 296 302 302 295 287 277 271 267 265 267 269 260 249 261 250 240 260 263
48 20 355 14 351 352 351 339 351 344 338 329 325 316 315 310 311 313 311 307 304 309 324 296 304 293 280 281 282 283 267 280 265 263 257 259 269 263 258 253 248 250 263
19 12 32 18 350 337 339 10 333 327 338 335 332 328 318 319 323 320 317 313 322 323 284 285 282 279 279 274 271 272 279 269 261 262 260 262 263 260 275 256 250 254 259
4 9 12 341 339 332 348 328 315 327 331 328 331 330 328 325 324 321 323 333 320 311 280 277 282 290 286 284 282 279 277 265 247 261 261 258 256 261 264 257 253 253 258
17 334 340 335 323 336 332 317 343 334 331 322 314 316 315 317 318 318 321 300 289 290 292 289 284 285 285 283 280 278 274 279 252 264 270 266 262 259 258 257 261 268 269
5 356 7 349 328 346 357 6 352 337 320 314 311 315 315 317 308 313 308 297 289 283 283 284 281 276 272 270 273 271 267 271 264 262 271 262 257 253 258 263 259 262 263
1 350 356 355 7 23 1 352 342 318 309 302 302 304 321 331 316 303 299 297 295 291 289 286 284 279 272 266 263 262 260 260 264 261 262 262 256 256 256 258 261 264 268
15 351 348 7 39 7 352 332 312 309 307 306 306 304 316 315 303 304 301 298 295 288 283 284 281 276 273 264 259 257 254 252 252 260 258 254 259 255 259 262 264 265 269
23 7 13 40 20 5 332 310 307 311 313 305 306 309 310 307 305 304 302 298 294 290 286 281 277 274 268 260 250 248 249 246 246 246 255 258 261 259 257 260 263 269 273
27 16 56 29 357 344 315 309 311 316 317 316 317 314 314 313 308 306 302 301 298 295 294 290 283 279 277 268 258 244 241 241 237 244 246 255 261 269 262 262 268 272 269
22 34 62 13 345 306 311 320 315 319 321 324 320 317 314 312 310 309 306 304 304 306 304 301 295 287 276 273 263 256 247 243 240 240 245 252 259 266 266 267 264 266 269
31 51 51 336 323 311 331 338 338 335 327 323 320 316 316 314 312 310 313 313 313 313 309 308 307 307 306 299 290 287 275 260 252 253 252 251 257 260 258 261 266 266 268